Skip Page Navigation
NASA JPL Caltech
NASA Logo - Jet Propulsion Laboratory + View the NASA Portal
+ Near-Earth Object (NEO) Program
Search JPL
JPL Home Earth Solar System Stars & Galaxies Technology
JPL Solar System Dynamics
BODIES ORBITS EPHEMERIDES TOOLS PHYSICAL DATA DISCOVERY FAQ SITE MAP
JPL Small-Body Database Browser
Search: [ help ]  
28516 Mobius (2000 DQ3)
Classification: Main-belt Asteroid          SPK-ID: 2028516
Ephemeris | Orbit Diagram | Orbital Elements | Physical Parameters | Discovery Circumstances | Close-Approach Data ]

[ show orbit diagram ]
Orbital Elements at Epoch 2456400.5 (2013-Apr-18.0) TDB
Reference: JPL 1 (heliocentric ecliptic J2000)
 Element Value Uncertainty (1-sigma)   Units 
e .0855970252199609 9.7129e-08  
a 2.64522084085528 2.6131e-08 AU
q 2.418797805828224 2.5826e-07 AU
i 8.54254030998522 1.0429e-05 deg
node 337.6554150803805 4.9066e-05 deg
peri 200.7919073786866 6.5156e-05 deg
M 6.823347371949036 4.2218e-05 deg
tp 2456370.715774511529
(2013-Mar-19.21577451)
0.00018431 JED
period 1571.416577723921
4.30
2.3285e-05
6.375e-08
d
yr
n .2290926576079737 3.3947e-09 deg/d
Q 2.871643875882335 2.8368e-08 AU
  Orbit Determination Parameters
   # obs. used (total)      570  
   data-arc span      8133 days (22.27 yr)  
   first obs. used      1991-01-07  
   last obs. used      2013-04-14  
   planetary ephem.      DE405  
   SB-pert. ephem.      SB405-CPV-2  
   condition code      0  
   fit RMS      .5934  
   data source      ORB  
   producer      Otto Matic  
   solution date      2013-Apr-29 14:49:32  

Additional Information
 Earth MOID = 1.42534 AU 
 T_jup = 3.372 
[ show covariance matrix ]

Ephemeris | Orbit Diagram | Orbital Elements | Physical Parameters | Discovery Circumstances | Close-Approach Data ]

Physical Parameter Table
Parameter Symbol Value Units Sigma Reference Notes
absolute magnitude H 14.2 mag n/a PDS3 (MPO 15389)  

28516 Möbius           Discovered 2000 Feb. 27 by P. G. Comba at Prescott.
August Ferdinand Möbius (1790-1868) was a professor of astronomy at Leipzig. He studied occultations of stars by the planets, but most of his work was in geometry, including the invention of the barycentric calculus. He is also remembered for his discovery of the Möbius strip, a one-sided surface.
NOTE: some special characters may not display properly (any characters within {} are an attempt to place the proper accent above a character)
Reference: 20011230/MPCPages.arcLast Updated: 2009-05-11

[ show close-approach data ]
Alternate Designations
 2000 DQ3 = 2000 AA137 
Ephemeris | Orbit Diagram | Orbital Elements | Physical Parameters | Discovery Circumstances | Close-Approach Data ]
ABOUT SSD CREDITS/AWARDS PRIVACY/COPYRIGHT GLOSSARY LINKS
FirstGov 2013-May-24 22:44 UT
(server date/time)  
NASA Home Page
Site Manager:   Donald K. Yeomans
Webmaster  Alan B. Chamberlin